FW7501 Weather Reports


Display with metric or nautical units.
time (UTC)temp
F
wind
direction
speed
MPH
gust
MPH
rain 1hr
in
rain 24hr
in
rain mn
in
humidity
%
barometer
mb
20260505235008 54 1 6.0 13.0 0.00 0.00 0.00 70 1021.4
20260505234512 53 16 8.0 13.0 0.00 0.00 0.00 70 1021.3
20260505234008 53 2 6.0 13.0 0.00 0.00 0.00 70 1021.4
20260505233027 53 340 6.0 11.0 0.00 0.00 0.00 70 1021.5
20260505232004 53 343 8.0 14.0 0.00 0.00 0.00 71 1021.6
20260505231513 53 15 7.0 11.0 0.00 0.00 0.00 71 1021.6
20260505231006 53 8 6.0 11.0 0.00 0.00 0.00 71 1021.6
20260505230506 53 349 6.0 11.0 0.00 0.00 0.00 71 1021.5
20260505230029 53 341 6.0 10.0 0.00 0.00 0.00 71 1021.7
20260505225508 52 2 6.0 10.0 0.00 0.00 0.00 71 1021.7
20260505225012 52 341 7.0 10.0 0.00 0.00 0.00 71 1021.6
20260505224518 52 337 5.0 10.0 0.00 0.00 0.00 71 1021.7
20260505224008 52 349 6.0 10.0 0.00 0.00 0.00 71 1021.6
20260505223511 52 330 6.0 10.0 0.00 0.00 0.00 71 1021.6
20260505223021 52 339 4.0 8.0 0.00 0.00 0.00 72 1021.5
20260505222511 52 337 5.0 8.0 0.00 0.00 0.00 71 1021.5
20260505222015 52 4 4.0 9.0 0.00 0.00 0.00 71 1021.5
20260505221519 52 16 4.0 9.0 0.00 0.00 0.00 71 1021.5
20260505221012 52 344 4.0 8.0 0.00 0.00 0.00 71 1021.5
20260505220506 52 8 4.0 8.0 0.00 0.00 0.00 71 1021.5
20260505220013 52 10 3.0 9.0 0.00 0.00 0.00 71 1021.6
20260505215508 51 23 5.0 9.0 0.00 0.00 0.00 71 1021.6
20260505215007 51 339 4.0 9.0 0.00 0.00 0.00 71 1021.6
20260505214504 51 330 5.0 9.0 0.00 0.00 0.00 72 1021.6
20260505214003 51 14 2.0 6.0 0.00 0.00 0.00 72 1021.7
20260505213503 51 358 1.0 7.0 0.00 0.00 0.00 72 1021.7
20260505213004 51 16 2.0 7.0 0.00 0.00 0.00 72 1021.7
20260505212503 51 14 3.0 7.0 0.00 0.00 0.00 72 1021.7
20260505212003 51 358 0.0 7.0 0.00 0.00 0.00 72 1021.5
20260505211504 51 341 3.0 7.0 0.00 0.00 0.00 72 1021.7
20260505211003 51 4 2.0 5.0 0.00 0.00 0.00 73 1021.8
20260505210507 51 14 2.0 7.0 0.00 0.00 0.00 73 1021.8
20260505210004 51 360 3.0 7.0 0.00 0.00 0.00 73 1021.6
20260505205513 51 13 2.0 6.0 0.00 0.00 0.00 73 1021.6
20260505205006 51 358 4.0 6.0 0.00 0.00 0.00 73 1021.7
20260505204506 51 337 4.0 6.0 0.00 0.00 0.00 73 1021.8
20260505204006 51 359 3.0 7.0 0.00 0.00 0.00 73 1021.7
20260505203503 51 10 3.0 7.0 0.00 0.00 0.00 73 1021.7
20260505203013 51 4 3.0 6.0 0.00 0.00 0.00 73 1021.8
20260505202503 51 4 2.0 6.0 0.00 0.00 0.00 73 1021.7
20260505202004 51 8 2.0 5.0 0.00 0.00 0.00 73 1021.7
20260505201506 51 10 2.0 7.0 0.00 0.00 0.00 73 1021.7
20260505201004 51 339 3.0 7.0 0.00 0.00 0.00 74 1021.5
20260505200504 51 341 2.0 5.0 0.00 0.00 0.00 74 1021.5
20260505200009 51 349 2.0 6.0 0.00 0.00 0.00 73 1021.5
20260505195504 51 348 2.0 6.0 0.00 0.00 0.00 73 1021.5
20260505195007 51 10 3.0 6.0 0.00 0.00 0.00 73 1021.4
20260505194514 51 15 1.0 6.0 0.00 0.00 0.00 74 1021.4
20260505194004 51 14 1.0 4.0 0.00 0.00 0.00 74 1021.4
20260505193512 51 17 0.0 6.0 0.00 0.00 0.00 74 1021.4
20260505193011 51 16 3.0 6.0 0.00 0.00 0.00 74 1021.4
20260505192503 51 4 1.0 4.0 0.00 0.00 0.00 74 1021.4
20260505192008 51 4 2.0 4.0 0.00 0.00 0.00 74 1021.5
20260505191513 51 360 1.0 4.0 0.00 0.00 0.00 73 1021.5
20260505191009 51 2 1.0 4.0 0.00 0.00 0.00 74 1021.6
20260505190504 51 352 0.0 3.0 0.00 0.00 0.00 73 1021.5
20260505190005 51 353 1.0 3.0 0.00 0.00 0.00 73 1021.6
20260505185504 52 353 1.0 3.0 0.00 0.00 0.00 72 1021.6
20260505185005 52 353 1.0 3.0 0.00 0.00 0.00 72 1021.5
20260505184006 52 352 1.0 7.0 0.00 0.00 0.00 71 1021.5
20260505183507 52 4 1.0 7.0 0.00 0.00 0.00 72 1021.5
20260505183014 52 333 1.0 4.0 0.00 0.00 0.00 72 1021.5
20260505182504 52 21 0.0 3.0 0.00 0.00 0.00 72 1021.5
20260505182006 52 14 1.0 3.0 0.00 0.00 0.00 72 1021.6
20260505181518 52 360 0.0 3.0 0.00 0.00 0.00 72 1021.6
20260505180510 52 360 1.0 4.0 0.00 0.00 0.00 72 1021.6
20260505180019 52 17 0.0 4.0 0.00 0.00 0.00 72 1021.6
20260505175504 52 14 0.0 3.0 0.00 0.00 0.00 72 1021.6
20260505175004 52 358 0.0 1.0 0.00 0.00 0.00 72 1021.6
20260505174505 52 354 0.0 5.0 0.00 0.00 0.00 71 1021.7
20260505173505 52 354 1.0 3.0 0.00 0.00 0.00 71 1021.7
20260505173010 52 353 1.0 3.0 0.00 0.00 0.00 72 1021.8
20260505172507 52 353 1.0 5.0 0.00 0.00 0.00 72 1021.8
20260505172008 52 351 1.0 5.0 0.00 0.00 0.00 72 1021.9
20260505171008 51 359 1.0 5.0 0.00 0.00 0.00 73 1021.9
20260505170509 51 339 1.0 4.0 0.00 0.00 0.00 73 1021.9
20260505170006 52 335 0.0 3.0 0.00 0.00 0.00 72 1022.0
20260505165510 52 314 1.0 4.0 0.00 0.00 0.00 72 1022.0
20260505165005 52 319 2.0 7.0 0.00 0.00 0.00 72 1022.0
20260505164524 52 334 2.0 7.0 0.00 0.00 0.00 71 1022.1
20260505164007 52 3 3.0 7.0 0.00 0.00 0.00 72 1022.1
20260505163503 52 345 3.0 7.0 0.00 0.00 0.00 71 1022.1
20260505162506 51 2 4.0 8.0 0.00 0.00 0.00 73 1022.2
20260505162007 51 8 2.0 5.0 0.00 0.00 0.00 73 1022.3
20260505161513 51 8 2.0 5.0 0.00 0.00 0.00 72 1022.4
20260505161008 51 4 2.0 5.0 0.00 0.00 0.00 72 1022.3
20260505160511 51 17 2.0 6.0 0.00 0.00 0.00 72 1022.4
20260505153028 51 2 2.0 5.0 0.00 0.00 0.00 73 1022.7
20260505152511 51 22 3.0 5.0 0.00 0.00 0.00 73 1022.7
20260505152012 51 335 0.0 6.0 0.00 0.00 0.00 73 1022.8
20260505151006 51 358 4.0 7.0 0.00 0.00 0.00 72 1022.8
20260505150509 52 7 2.0 6.0 0.00 0.00 0.00 72 1022.8
20260505140511 52 20 0.0 3.0 0.00 0.00 0.00 69 1022.8
20260505125008 53 17 2.0 4.0 0.00 0.00 0.00 69 1023.2
20260505124502 53 35 0.0 3.0 0.00 0.00 0.00 69 1023.2
20260505124006 53 42 1.0 2.0 0.00 0.00 0.00 69 1023.3
20260505123506 53 42 0.0 3.0 0.00 0.00 0.00 69 1023.4
20260505123003 53 42 0.0 3.0 0.00 0.00 0.00 69 1023.5
20260505122504 53 24 1.0 3.0 0.00 0.00 0.00 69 1023.6
20260505122004 53 25 0.0 3.0 0.00 0.00 0.00 69 1023.6
20260505121506 53 41 0.0 4.0 0.00 0.00 0.00 70 1023.6
20260505121005 53 41 0.0 4.0 0.00 0.00 0.00 70 1023.6
20260505120508 53 41 1.0 3.0 0.00 0.00 0.00 70 1023.7
20260505115502 53 50 0.0 3.0 0.00 0.00 0.00 70 1023.7
20260505114505 53 27 0.0 0.0 0.00 0.00 0.00 70 1023.7
20260505113504 53 27 0.0 3.0 0.00 0.00 0.00 70 1023.8
20260505113004 53 27 0.0 3.0 0.00 0.00 0.00 70 1023.7
20260505112507 53 27 0.0 1.0 0.00 0.00 0.00 70 1023.7
20260505112003 53 27 0.0 0.0 0.00 0.00 0.00 70 1023.6
20260505111505 53 27 0.0 0.0 0.00 0.00 0.00 70 1023.6
20260505111004 53 27 0.0 0.0 0.00 0.00 0.00 70 1023.5
20260505110504 53 27 0.0 3.0 0.00 0.00 0.00 70 1023.6
20260505102007 53 14 0.0 0.0 0.00 0.00 0.00 70 1023.7
20260505101507 53 14 0.0 0.0 0.00 0.00 0.00 70 1023.7
20260505101002 53 14 0.0 0.0 0.00 0.00 0.00 70 1023.6
20260505100503 53 14 0.0 0.0 0.00 0.00 0.00 70 1023.6
20260505100005 53 212 0.0 0.0 0.00 0.00 0.00 70 1023.6
20260505095507 53 212 0.0 0.0 0.00 0.00 0.00 70 1023.6
20260505095007 53 212 0.0 0.0 0.00 0.00 0.00 69 1023.6
20260505094505 53 212 0.0 0.0 0.00 0.00 0.00 69 1023.6
20260505094004 53 212 0.0 0.0 0.00 0.00 0.00 69 1023.6
20260505093505 53 212 0.0 0.0 0.00 0.00 0.00 70 1023.6
20260505093012 53 212 0.0 0.0 0.00 0.00 0.00 70 1023.6
20260505092505 53 212 0.0 0.0 0.00 0.00 0.00 70 1023.5
20260505092006 53 212 0.0 0.0 0.00 0.00 0.00 69 1023.6
20260505091514 53 212 0.0 1.0 0.00 0.00 0.00 69 1023.6
20260505091006 53 212 0.0 1.0 0.00 0.00 0.00 69 1023.6
20260505090504 53 212 0.0 1.0 0.00 0.00 0.00 68 1023.6
20260505090016 53 212 0.0 0.0 0.00 0.00 0.00 68 1023.5
20260505085004 54 212 0.0 0.0 0.00 0.00 0.00 68 1023.2
20260505084505 54 212 0.0 0.0 0.00 0.00 0.00 69 1023.2
20260505084004 54 212 0.0 0.0 0.00 0.00 0.00 69 1023.2
20260505083504 54 212 0.0 1.0 0.00 0.00 0.00 69 1023.2
20260505083008 54 212 0.0 1.0 0.00 0.00 0.00 70 1023.2
20260505082504 54 212 0.0 0.0 0.00 0.00 0.00 71 1023.2
20260505082006 54 212 0.0 0.0 0.00 0.01 0.00 71 1023.1
20260505081507 54 212 0.0 0.0 0.00 0.01 0.00 70 1023.1
20260505081006 54 212 0.0 3.0 0.00 0.01 0.00 70 1023.1
20260505080510 54 212 0.0 3.0 0.00 0.02 0.00 70 1023.0
20260505075510 54 148 0.0 0.0 0.00 0.03 0.00 71 1022.8
20260505075007 54 148 0.0 0.0 0.00 0.03 0.00 71 1022.7
20260505074522 54 148 0.0 3.0 0.00 0.03 0.00 71 1022.6
20260505074009 54 148 0.0 4.0 0.00 0.03 0.00 71 1022.6
20260505073505 54 148 2.0 4.0 0.00 0.03 0.00 71 1022.6
20260505073008 54 137 0.0 4.0 0.00 0.03 0.00 71 1022.6
20260505072505 55 130 2.0 5.0 0.00 0.03 0.00 71 1022.5
20260505072005 55 133 3.0 5.0 0.00 0.03 0.00 70 1022.5
20260505071509 55 145 2.0 4.0 0.00 0.03 0.00 70 1022.3
20260505071005 55 154 1.0 4.0 0.00 0.03 0.00 70 1022.3
20260505070508 55 172 1.0 3.0 0.00 0.03 0.00 70 1022.3
20260505070019 55 189 0.0 3.0 0.00 0.03 0.00 70 1022.3
20260505065507 55 189 2.0 3.0 0.00 0.03 0.00 69 1022.2
20260505065007 55 189 2.0 3.0 0.00 0.03 0.00 69 1022.2
20260505064514 55 189 0.0 5.0 0.00 0.03 0.00 69 1022.1
20260505064005 55 175 2.0 5.0 0.00 0.03 0.00 67 1022.1
20260505063509 56 193 2.0 8.0 0.00 0.03 0.00 67 1021.9
20260505063013 56 180 3.0 8.0 0.00 0.03 0.00 66 1021.9
20260505062511 56 210 4.0 6.0 0.00 0.03 0.00 65 1021.9
20260505062009 56 190 3.0 5.0 0.00 0.03 0.00 65 1021.9
20260505061509 56 205 3.0 7.0 0.00 0.03 0.00 65 1021.9
20260505061010 56 172 3.0 8.0 0.00 0.03 0.00 65 1021.9
20260505060506 56 192 3.0 9.0 0.00 0.03 0.00 65 1021.8
20260505060010 56 202 5.0 9.0 0.00 0.03 0.00 63 1021.8
20260505055507 56 239 4.0 6.0 0.00 0.03 0.00 63 1021.7
20260505055007 56 224 3.0 7.0 0.00 0.03 0.00 62 1021.7
20260505054530 56 248 2.0 7.0 0.00 0.03 0.00 63 1021.7
20260505054008 56 238 4.0 7.0 0.00 0.03 0.00 62 1021.6
20260505053511 56 250 2.0 6.0 0.00 0.03 0.00 63 1021.5
20260505053023 56 193 1.0 8.0 0.00 0.03 0.00 66 1021.4
20260505052508 56 233 4.0 10.0 0.00 0.03 0.00 64 1021.4
20260505052010 56 274 5.0 10.0 0.00 0.03 0.00 62 1021.3
20260505051522 56 261 6.0 9.0 0.00 0.03 0.00 63 1021.3
20260505051007 56 261 0.0 0.0 0.00 0.03 0.00 63 1021.4
20260505050513 56 201 0.0 0.0 0.00 0.03 0.00 63 1021.4
20260505041522 55 271 1.0 9.0 0.00 0.03 0.00 65 1021.2
20260505041009 55 294 5.0 8.0 0.00 0.03 0.00 66 1021.2
20260505040511 55 231 4.0 8.0 0.00 0.03 0.00 65 1021.1
20260505040030 55 243 3.0 8.0 0.00 0.03 0.00 65 1021.1
20260505035507 55 256 3.0 7.0 0.00 0.03 0.00 67 1021.1
20260505035007 55 237 3.0 10.0 0.00 0.03 0.00 67 1021.1
20260505034505 55 236 5.0 10.0 0.00 0.03 0.00 67 1021.1
20260505034004 55 248 4.0 11.0 0.00 0.03 0.00 66 1021.1
20260505033506 55 255 3.0 11.0 0.00 0.03 0.00 67 1021.2
20260505033015 55 210 4.0 9.0 0.00 0.03 0.00 67 1021.1
20260505032507 54 267 3.0 8.0 0.00 0.03 0.00 68 1021.0
20260505031519 54 260 5.0 8.0 0.00 0.03 0.00 68 1021.1
20260505031007 54 241 4.0 12.0 0.00 0.03 0.00 67 1021.2
20260505030504 54 245 6.0 12.0 0.00 0.03 0.00 68 1021.2
20260505030036 54 222 5.0 9.0 0.00 0.03 0.00 68 1021.2
20260505025508 54 253 4.0 13.0 0.00 0.03 0.00 68 1021.2
20260505025006 53 263 7.0 13.0 0.00 0.03 0.00 70 1021.2
20260505024516 53 234 5.0 12.0 0.00 0.03 0.00 70 1021.2
20260505024004 53 233 6.0 12.0 0.00 0.03 0.00 70 1021.2
20260505023504 54 245 6.0 10.0 0.00 0.03 0.00 69 1021.3
20260505023016 54 254 7.0 10.0 0.00 0.03 0.00 68 1021.4
20260505022506 54 262 5.0 10.0 0.00 0.03 0.00 69 1021.4
20260505022008 54 289 4.0 11.0 0.00 0.03 0.00 68 1021.4
20260505021008 53 250 3.0 12.0 0.00 0.03 0.00 70 1021.5
20260505020507 54 260 7.0 13.0 0.00 0.03 0.00 71 1021.6
20260505020010 54 254 8.0 13.0 0.00 0.03 0.00 70 1021.5
20260505015509 54 258 9.0 13.0 0.00 0.03 0.00 69 1021.6
20260505014532 54 252 8.0 13.0 0.00 0.03 0.00 70 1021.6
20260505013507 54 245 7.0 15.0 0.00 0.03 0.00 69 1021.7
20260505013017 54 241 8.0 15.0 0.00 0.03 0.00 68 1021.6
20260505012507 54 262 6.0 14.0 0.00 0.03 0.00 68 1021.7
20260505012006 55 277 6.0 13.0 0.00 0.03 0.00 67 1021.7
20260505011515 54 247 8.0 22.0 0.00 0.03 0.00 68 1021.6
20260505011007 54 230 12.0 22.0 0.00 0.03 0.00 68 1021.5
20260505010507 54 256 15.0 21.0 0.00 0.03 0.00 67 1021.4
20260505010020 54 231 8.0 14.0 0.00 0.03 0.00 69 1021.5
20260505005512 54 218 9.0 16.0 0.00 0.03 0.00 69 1021.4
20260505005008 54 264 10.0 16.0 0.00 0.03 0.00 69 1021.4
20260505004010 55 234 10.0 16.0 0.00 0.03 0.00 70 1021.3
20260505003508 54 242 8.0 15.0 0.00 0.03 0.00 72 1021.2
20260505003015 54 233 7.0 13.0 0.00 0.03 0.00 71 1021.2
20260505002509 54 287 9.0 12.0 0.00 0.03 0.00 71 1021.1
20260505002008 53 242 6.0 14.0 0.00 0.03 0.00 72 1021.1
20260505001510 53 210 8.0 14.0 0.00 0.03 0.00 72 1020.9
20260505001007 53 241 10.0 15.0 0.00 0.03 0.00 72 1020.9
20260505000511 54 270 10.0 15.0 0.00 0.03 0.00 74 1020.9
20260505000018 53 233 9.0 13.0 0.00 0.03 0.00 75 1021.0
20260504235507 53 254 7.0 11.0 0.00 0.03 0.00 78 1020.9